FW9978 Weather Reports


time (UTC)temp
C
wind
direction
speed
KPH
gust
KPH
rain 1hr
cm
rain 24hr
cm
rain mn
cm
humidity
%
barometer
mb
20260506111539 23 121 0.0 0.0 0.00 0.00 0.00 90 1007.6
20260506110050 23 122 0.0 4.8 0.00 0.00 0.00 90 1007.3
20260506104541 23 129 0.0 4.8 0.00 0.00 0.00 90 1007.1
20260506103043 23 126 0.0 6.4 0.00 0.00 0.00 89 1007.0
20260506101550 23 107 0.0 1.6 0.00 0.00 0.00 89 1006.8
20260506100109 23 96 0.0 4.8 0.00 0.00 0.00 89 1006.8
20260506094553 23 132 0.0 6.4 0.00 0.00 0.00 89 1006.8
20260506093057 23 138 1.6 14.5 0.00 0.00 0.00 89 1006.8
20260506091602 23 136 1.6 11.3 0.00 0.00 0.00 89 1006.7
20260506090109 23 118 1.6 8.0 0.00 0.00 0.00 89 1006.6
20260506084604 23 115 0.0 4.8 0.00 0.00 0.00 89 1006.8
20260506083123 23 120 1.6 12.9 0.00 0.00 0.00 89 1006.7
20260506081559 23 138 4.8 14.5 0.00 0.00 0.00 89 1006.8
20260506073038 23 140 3.2 6.4 0.00 0.00 0.00 88 1006.8
20260506071555 23 110 3.2 11.3 0.00 0.00 0.00 88 1006.9
20260506070123 23 132 3.2 11.3 0.00 0.00 0.00 88 1006.8
20260506061557 23 173 3.2 14.5 0.00 0.00 0.00 87 1006.5
20260506060118 23 94 3.2 14.5 0.00 0.00 0.00 87 1006.4
20260506050126 23 221 3.2 14.5 0.00 0.00 0.00 86 1006.5
20260506044558 23 249 3.2 12.9 0.00 0.00 0.00 86 1006.4
20260506043112 23 242 1.6 9.7 0.00 0.00 0.00 85 1006.2
20260506041557 24 198 3.2 11.3 0.00 0.00 0.00 85 1006.1
20260506040114 24 219 1.6 6.4 0.00 0.00 0.00 85 1006.2
20260506034559 24 189 3.2 11.3 0.00 0.00 0.00 84 1005.8
20260506033104 24 186 1.6 8.0 0.00 0.00 0.00 84 1005.7
20260506031503 25 180 0.0 8.0 0.00 0.00 0.00 83 1005.4
20260506030122 25 148 3.2 6.4 0.00 0.00 0.00 83 1005.2
20260506024608 25 200 3.2 9.7 0.00 0.00 0.00 83 1005.0
20260506023006 25 180 3.2 9.7 0.00 0.00 0.00 82 1004.7
20260506021519 25 199 0.0 4.8 0.00 0.00 0.00 82 1004.5
20260506020057 25 184 0.0 0.0 0.00 0.00 0.00 81 1004.4
20260506014540 25 181 0.0 3.2 0.00 0.00 0.00 81 1004.3
20260506013050 26 184 0.0 3.2 0.00 0.00 0.00 80 1004.2
20260506011505 26 231 0.0 4.8 0.00 0.00 0.00 80 1004.1
20260506010108 26 251 1.6 4.8 0.00 0.00 0.00 79 1004.0
20260506004605 27 255 3.2 8.0 0.00 0.00 0.00 79 1004.1
20260506003108 27 228 3.2 11.3 0.00 0.00 0.00 78 1003.9
20260506001505 27 254 3.2 11.3 0.00 0.00 0.00 78 1003.9
20260506000123 27 242 6.4 12.9 0.00 0.00 0.00 78 1003.8
20260505234555 27 250 4.8 14.5 0.00 0.00 0.00 78 1003.5
20260505233057 27 260 9.7 20.9 0.00 0.00 0.00 77 1003.5
20260505231614 27 250 4.8 17.7 0.00 0.00 0.00 77 1003.5
20260505230124 28 248 6.4 16.1 0.00 0.00 0.00 77 1003.4
20260505224502 27 247 6.4 19.3 0.00 0.00 0.00 77 1003.4
20260505223003 27 270 4.8 17.7 0.00 0.00 0.00 78 1003.6
20260505221503 27 244 6.4 19.3 0.00 0.00 0.00 78 1003.4
20260505220109 28 257 6.4 14.5 0.00 0.00 0.00 78 1003.6
20260505214600 27 229 11.3 19.3 0.00 0.00 0.00 78 1003.7
20260505213110 27 248 9.7 20.9 0.00 0.00 0.00 79 1004.0
20260505211608 27 250 9.7 27.4 0.00 0.00 0.00 78 1004.2
20260505210032 27 207 9.7 25.7 0.00 0.00 0.00 78 1004.1
20260505204511 27 232 9.7 32.2 0.00 0.00 0.00 78 1004.0
20260505203051 27 262 8.0 24.1 0.00 0.00 0.00 80 1004.3
20260505201536 27 238 11.3 20.9 0.00 0.00 0.00 82 1004.4
20260505200034 26 254 11.3 25.7 0.00 0.00 0.00 82 1004.6
20260505194543 26 230 12.9 27.4 0.00 0.00 0.00 81 1004.6
20260505193036 26 202 9.7 29.0 0.00 0.00 0.00 83 1005.0
20260505191603 26 257 9.7 27.4 0.00 0.00 0.00 84 1005.1
20260505190057 25 186 16.1 32.2 0.00 0.00 0.00 84 1005.1
20260505184553 25 274 14.5 29.0 0.00 0.00 0.00 85 1005.4
20260505183018 24 229 11.3 25.7 0.00 0.00 0.00 86 1005.7
20260505181508 24 258 12.9 25.7 0.00 0.00 0.00 86 1006.0
20260505180040 24 220 6.4 19.3 0.00 0.00 0.00 87 1006.0
20260505174507 23 228 9.7 25.7 0.00 0.00 0.00 87 1006.1
20260505173032 23 248 14.5 33.8 0.00 0.00 0.00 87 1006.1
20260505171534 23 255 9.7 24.1 0.00 0.00 0.00 87 1006.3
20260505170008 23 226 11.3 20.9 0.00 0.00 0.00 88 1006.3
20260505164503 23 242 14.5 29.0 0.00 0.00 0.00 88 1006.3
20260505163004 23 215 9.7 27.4 0.00 0.00 0.00 88 1006.2
20260505161529 22 248 11.3 32.2 0.00 0.00 0.00 88 1006.3
20260505153033 22 117 9.7 25.7 0.00 0.00 0.00 88 1006.4
20260505151535 22 123 9.7 20.9 0.00 0.00 0.00 88 1006.2
20260505124542 21 129 4.8 16.1 0.00 0.00 0.00 87 1005.5
20260505123012 21 130 8.0 24.1 0.00 0.00 0.00 87 1005.5
20260505121613 21 135 6.4 22.5 0.00 0.00 0.00 87 1005.1
20260505114553 21 98 6.4 16.1 0.00 0.00 0.00 86 1005.2
20260505113104 21 123 6.4 22.5 0.00 0.00 0.00 86 1005.1